Location: Glen Avon
(34.0117°N, 117.4848°W)
Time: 20:29:15
(UTC+00:00)

CZ-3 R/B - Pass Details

Date: 01 August 2021
Orbit: 398 x 10204 km, 28.3° (Epoch: 20 September)

Event Time Altitude Azimuth Distance (km) Brightness Sun altitude
Exits shadow 12:10:00 10° 250° (WSW) 10,278 6.1 -10.4°
Reaches altitude 10° 12:10:35 10° 250° (WSW) 10,144 6.0 -10.3°
Maximum altitude 12:39:27 63° 177° (S) 2,322 3.4 -5.0°
Drops below altitude 10° 12:46:44 10° 97° (E) 2,976 5.1 -3.7°
Sets 12:48:27 0° 93° (E) 3,551 5.7 -3.4°
